PBO Station Position Time Series. Reference Frame : NAM14
Format Version,1.1.1
4-character ID,P451
Station name,WSUOthelo_WA2004
Begin Date, 2004-12-23
End Date, 2023-06-26
Release Date, 2023-06-27
Reference position, 46.7927864462 North Latitude, -119.0413619770 East Longitude, 351.44592 meters elevation,
Date, North (mm), East (mm), Vertical (mm), North Std. Deviation (mm), East Std. Deviation (mm),              Vertical Std. Deviation (mm), Quality,
2004-12-23,0.00, 0.00, 0.00, 2.15, 1.55, 6.91, repro,
2004-12-24,-0.79, -0.15, 3.76, 2.17, 1.57, 7.00, repro,
2004-12-25,-0.94, 0.60, 7.48, 2.20, 1.58, 7.10, repro,
2004-12-26,0.72, 0.24, 11.71, 2.26, 1.58, 7.09, repro,
2004-12-27,-0.02, 0.69, 5.50, 2.24, 1.57, 7.06, repro,
2004-12-28,-0.08, 0.35, 7.67, 2.29, 1.60, 7.15, repro,
2004-12-29,-0.50, 0.55, -10.02, 2.27, 1.60, 7.19, repro,
2004-12-30,-1.24, -2.99, -12.26, 2.38, 1.63, 7.29, repro,
2004-12-31,2.16, -1.29, -21.84, 2.45, 1.71, 7.58, repro,
2005-01-01,1.84, -0.25, -1.36, 2.26, 1.57, 7.06, repro,
2005-01-02,3.36, 0.36, 4.06, 2.33, 1.61, 7.14, repro,
2005-01-03,0.61, 0.03, 5.96, 2.34, 1.62, 7.18, repro,
2005-01-04,1.57, 0.48, 5.73, 2.40, 1.66, 7.30, repro,
2005-01-05,1.37, 1.07, 2.75, 2.35, 1.60, 7.26, repro,
2005-01-06,1.88, 0.06, 11.36, 2.38, 1.68, 7.35, repro,
2005-01-07,2.87, 0.35, 12.87, 2.35, 1.68, 7.36, repro,
2005-01-08,2.57, 1.66, 12.49, 2.31, 1.70, 7.41, repro,
2005-01-09,1.62, 1.50, 9.30, 2.25, 1.64, 7.19, repro,
2005-01-10,1.09, 1.09, 7.37, 2.45, 1.75, 7.84, repro,
2005-01-11,1.52, 0.80, 14.00, 2.39, 1.79, 7.74, repro,
2005-01-12,-1.11, -1.38, 6.85, 2.27, 1.66, 7.32, repro,
2005-01-13,1.67, 0.54, -5.52, 2.34, 1.72, 7.54, repro,
2005-01-14,-0.46, 0.66, -3.94, 2.33, 1.70, 7.47, repro,
2005-01-15,0.52, 0.40, -5.71, 2.46, 1.87, 8.16, repro,
2005-01-16,0.39, -0.12, -6.61, 2.34, 1.65, 7.22, repro,
2005-01-17,-1.13, 0.56, -2.30, 2.27, 1.61, 7.17, repro,
2005-01-18,-1.52, 0.86, 2.42, 2.24, 1.60, 7.12, repro,
2005-01-19,-1.80, 0.67, -14.74, 2.32, 1.63, 7.22, repro,
2005-01-20,1.51, 0.53, -3.12, 2.26, 1.60, 7.21, repro,
2005-01-21,0.07, 1.18, -1.64, 2.25, 1.62, 7.21, repro,
2005-01-22,-0.67, -0.16, -7.27, 2.21, 1.61, 7.13, repro,
2005-01-23,-0.40, 0.26, -10.44, 2.17, 1.58, 6.97, repro,
2005-01-24,0.02, -0.89, -12.46, 2.21, 1.61, 7.07, repro,
2005-01-25,-0.26, 0.40, -21.24, 2.27, 1.67, 7.38, repro,
2005-01-26,0.09, 0.41, -18.25, 2.33, 1.68, 7.27, repro,
2005-01-27,-0.37, -0.39, -13.43, 2.20, 1.58, 7.06, repro,
2005-01-28,0.54, -0.39, -15.37, 2.26, 1.68, 7.30, repro,
2005-01-29,-0.79, 0.90, -19.92, 2.16, 1.55, 6.89, repro,
2005-01-30,0.03, -0.31, -22.87, 2.20, 1.59, 7.08, repro,
2005-01-31,-1.95, -1.87, -28.74, 2.25, 1.63, 7.23, repro,
2005-02-01,-0.56, -0.75, -16.57, 2.23, 1.60, 7.15, repro,
2005-02-02,-0.14, 0.08, -2.06, 2.17, 1.55, 6.90, repro,
2005-02-03,-0.29, 1.58, -3.00, 2.22, 1.56, 7.04, repro,
2005-02-04,-1.20, 0.15, 3.77, 2.16, 1.53, 6.87, repro,
2005-02-05,-0.42, -0.06, -1.08, 2.18, 1.55, 6.97, repro,
2005-02-06,0.24, 0.63, 2.03, 2.19, 1.55, 7.00, repro,
2005-02-07,0.80, 0.08, 0.92, 2.20, 1.54, 6.95, repro,
2005-02-08,0.42, 0.42, 1.12, 2.19, 1.57, 7.02, repro,
2005-02-09,-0.47, 0.74, 7.28, 2.20, 1.58, 7.08, repro,
2005-02-10,-1.26, 0.37, 2.63, 2.16, 1.54, 6.90, repro,
2005-02-11,0.21, 0.21, 3.53, 2.18, 1.54, 6.95, repro,
2005-02-12,-0.60, 0.17, 10.27, 2.19, 1.54, 6.97, repro,
2005-02-13,-0.16, -0.21, 9.91, 2.16, 1.53, 6.91, repro,
2005-02-14,-0.20, -0.62, 11.86, 2.17, 1.53, 6.92, repro,
2005-02-15,-0.15, -0.52, 2.27, 2.16, 1.54, 6.97, repro,
2005-02-16,0.11, -0.07, -2.82, 2.17, 1.53, 6.94, repro,
2005-02-17,0.09, -0.08, -0.84, 2.25, 1.57, 7.12, repro,
2005-02-18,-0.68, 0.50, 4.29, 2.18, 1.54, 7.01, repro,
2005-02-19,-0.41, -0.10, 6.86, 2.18, 1.54, 6.96, repro,
2005-02-20,-0.13, -0.11, 6.08, 2.18, 1.53, 6.95, repro,
2005-02-21,0.40, -0.15, 6.07, 2.21, 1.58, 7.05, repro,
2005-02-22,-1.06, 0.59, 2.37, 2.18, 1.53, 6.92, repro,
2005-02-23,-0.83, 0.87, 2.60, 2.24, 1.55, 7.06, repro,
2005-02-24,-0.86, 0.65, 2.36, 2.24, 1.56, 7.06, repro,
2005-02-25,-0.86, 0.59, 4.90, 2.23, 1.55, 7.03, repro,
2005-02-26,-0.75, 0.38, 3.57, 2.24, 1.55, 7.05, repro,
2005-02-27,0.38, 0.51, 6.05, 2.24, 1.55, 7.04, repro,
2005-02-28,-0.20, -0.08, 6.77, 2.23, 1.54, 6.99, repro,
2005-03-01,-0.62, -0.77, 1.22, 2.24, 1.55, 7.02, repro,
2005-03-02,-0.92, 0.48, 8.89, 2.25, 1.57, 7.09, repro,
2005-03-03,-0.63, 0.18, 6.74, 2.25, 1.56, 7.06, repro,
2005-03-04,-0.37, 0.12, 4.64, 2.25, 1.56, 7.06, repro,
2005-03-05,1.29, 0.63, 1.94, 2.23, 1.54, 6.99, repro,
2005-03-06,-0.72, 0.09, 8.37, 2.24, 1.55, 7.01, repro,
2005-03-07,1.06, -0.23, 5.40, 2.25, 1.57, 7.10, repro,
2005-03-08,0.34, 0.87, 5.71, 2.24, 1.56, 7.07, repro,
2005-03-09,0.88, -0.39, -0.91, 2.29, 1.59, 7.18, repro,
2005-03-10,0.43, 0.33, 0.84, 2.25, 1.55, 7.02, repro,
2005-03-11,0.84, -0.48, 5.94, 2.23, 1.54, 6.98, repro,
2005-03-12,-0.72, -0.21, 5.88, 2.25, 1.55, 7.01, repro,
2005-03-13,0.27, -0.15, -1.92, 2.23, 1.55, 7.01, repro,
2005-03-14,0.73, -0.03, 2.68, 2.25, 1.56, 7.05, repro,
2005-03-15,-0.28, 0.20, 8.06, 2.31, 1.59, 7.23, repro,
2005-03-16,-1.21, 0.75, 6.06, 2.29, 1.58, 7.10, repro,
2005-03-17,1.17, -0.25, 10.79, 2.24, 1.55, 6.99, repro,
2005-03-18,0.90, 0.16, 9.35, 2.23, 1.55, 7.01, repro,
2005-03-19,-0.32, -0.02, 8.28, 2.25, 1.56, 7.05, repro,
2005-03-20,0.15, -0.33, 2.26, 2.29, 1.57, 7.18, repro,
2005-03-21,0.36, -0.23, 11.69, 2.24, 1.54, 6.96, repro,
2005-03-22,0.35, -0.07, 10.06, 2.23, 1.55, 6.98, repro,
2005-03-23,0.30, -0.05, 13.46, 2.23, 1.55, 7.00, repro,
2005-03-24,-0.18, 0.09, 8.47, 2.32, 1.61, 7.28, repro,
2005-03-25,-1.07, 0.15, 5.53, 2.25, 1.56, 7.09, repro,
2005-03-26,-1.24, 0.13, 4.55, 2.26, 1.55, 7.06, repro,
2005-03-27,-0.02, -0.65, 8.80, 2.25, 1.56, 7.02, repro,
2005-03-28,-1.04, -1.17, 18.48, 2.26, 1.56, 7.05, repro,
2005-03-29,0.45, -0.72, 13.88, 2.28, 1.60, 7.20, repro,
2005-03-30,0.20, -0.62, 12.67, 2.23, 1.55, 7.02, repro,
2005-03-31,-1.49, -0.50, 7.13, 2.32, 1.58, 7.25, repro,
2005-04-01,-2.21, -0.07, 9.04, 2.26, 1.55, 7.04, repro,
2005-04-02,0.11, 0.34, 6.69, 2.25, 1.56, 7.07, repro,
2005-04-03,-0.72, -0.72, 15.88, 2.31, 1.57, 7.29, repro,
2005-04-04,0.49, -1.08, 9.38, 2.32, 1.57, 7.41, repro,
2005-04-05,0.39, 0.27, 5.45, 2.31, 1.58, 7.31, repro,
2005-04-06,-0.85, 0.43, 8.93, 2.32, 1.62, 7.30, repro,
2005-04-07,-0.90, -0.21, 19.12, 2.26, 1.56, 7.11, repro,
2005-04-08,0.07, -0.43, 22.91, 2.30, 1.56, 7.21, repro,
2005-04-09,-0.20, -0.21, 16.27, 2.30, 1.57, 7.27, repro,
2005-04-10,0.07, 0.44, 9.17, 2.30, 1.57, 7.28, repro,
2005-04-11,0.63, 0.13, 12.10, 2.30, 1.58, 7.26, repro,
2005-04-12,-0.96, -0.33, 12.30, 2.28, 1.57, 7.16, repro,
2005-04-13,0.77, 0.04, 9.14, 2.31, 1.57, 7.27, repro,
2005-04-14,-1.21, -0.22, 10.24, 2.42, 1.63, 7.40, repro,
2005-04-15,-1.40, -0.96, -23.11, 2.63, 1.70, 7.89, repro,
2005-04-16,-1.12, 0.78, 6.47, 2.30, 1.57, 7.26, repro,
2005-04-17,0.07, 1.06, 10.75, 2.27, 1.55, 7.02, repro,
2005-04-18,-1.43, 0.81, 6.82, 2.32, 1.61, 7.20, repro,
2005-04-19,-1.08, 0.29, 9.77, 2.27, 1.54, 7.00, repro,
2005-04-20,0.37, 1.05, 12.50, 2.31, 1.57, 7.28, repro,
2005-04-21,-0.55, 1.44, 5.04, 2.35, 1.61, 7.38, repro,
2005-04-22,0.66, 1.99, 6.26, 2.26, 1.55, 7.00, repro,
2005-04-23,-0.01, 2.22, 7.62, 2.34, 1.59, 7.22, repro,
2005-04-24,0.20, -0.66, 1.21, 2.30, 1.56, 7.22, repro,
2005-04-25,1.69, 0.43, 10.48, 2.31, 1.57, 7.28, repro,
2005-04-26,0.36, 1.39, 5.23, 2.30, 1.57, 7.28, repro,
2005-04-27,-0.27, 1.16, 1.88, 2.24, 1.54, 6.93, repro,
2005-04-28,-0.36, 2.05, 9.82, 2.31, 1.61, 7.26, repro,
2005-04-29,0.13, 1.08, 8.12, 2.27, 1.56, 7.07, repro,
2005-04-30,0.81, 1.57, 5.84, 2.26, 1.55, 7.01, repro,
2005-05-01,0.05, 1.37, 8.62, 2.30, 1.57, 7.24, repro,
2005-05-02,-1.05, 1.28, -10.55, 2.25, 1.54, 6.98, repro,
2005-05-03,-1.84, 0.90, -0.43, 2.28, 1.59, 7.18, repro,
2005-05-04,-1.19, 0.61, -0.29, 2.26, 1.56, 7.06, repro,
2005-05-05,-1.18, 0.97, 5.49, 2.23, 1.55, 6.99, repro,
2005-05-06,1.51, 0.64, 11.72, 2.24, 1.55, 6.98, repro,
2005-05-07,0.93, 0.99, 9.04, 2.25, 1.55, 7.01, repro,
2005-05-08,0.83, 2.18, 12.66, 2.36, 1.59, 7.19, repro,
2005-05-09,0.79, 0.83, 8.18, 2.33, 1.57, 7.24, repro,
2005-05-10,0.26, 0.16, 7.60, 2.31, 1.58, 7.22, repro,
2005-05-11,-0.26, 5.94, -16.99, 2.35, 1.64, 7.40, repro,
2005-05-12,0.26, 1.40, 7.84, 2.32, 1.65, 7.42, repro,
2005-05-13,-0.64, 3.07, 9.23, 2.43, 1.68, 7.56, repro,
2005-05-14,-0.63, 2.58, 13.66, 2.34, 1.64, 7.42, repro,
2005-05-15,-0.60, 2.03, 10.00, 2.41, 1.67, 7.68, repro,
2005-05-16,-2.30, 1.21, 17.61, 2.26, 1.59, 7.15, repro,
2005-05-17,-0.26, 1.47, 17.39, 2.35, 1.61, 7.29, repro,
2005-05-18,-0.38, 2.44, 21.69, 2.34, 1.62, 7.31, repro,
2005-05-19,-0.66, 1.40, 17.99, 2.28, 1.60, 7.23, repro,
2005-05-20,-1.92, 2.83, 8.09, 2.28, 1.60, 7.21, repro,
2005-05-21,0.55, 2.60, 5.61, 2.26, 1.59, 7.16, repro,
2005-05-22,-3.12, 1.28, 8.76, 2.26, 1.59, 7.16, repro,
2005-05-23,-1.22, 2.25, 8.90, 2.28, 1.59, 7.18, repro,
2005-05-24,-1.65, 1.61, 5.39, 2.28, 1.59, 7.20, repro,
2005-05-25,-0.77, 1.94, 4.14, 2.29, 1.60, 7.24, repro,
2005-05-26,0.36, 2.01, 5.99, 2.27, 1.60, 7.19, repro,
2005-05-27,-0.64, 2.23, 4.89, 2.27, 1.59, 7.18, repro,
2005-05-28,0.01, 2.34, 10.78, 2.26, 1.58, 7.12, repro,
2005-05-29,-0.71, 0.88, 12.56, 2.27, 1.59, 7.20, repro,
2005-05-30,0.50, 1.48, 11.01, 2.28, 1.60, 7.25, repro,
2005-05-31,0.01, 2.20, 15.66, 2.27, 1.60, 7.23, repro,
2005-06-01,-0.76, 1.71, 15.12, 2.24, 1.55, 7.01, repro,
2005-06-02,-1.43, 1.70, 12.99, 2.25, 1.54, 6.97, repro,
2005-06-03,-0.68, 1.92, 15.75, 2.26, 1.55, 7.06, repro,
2005-06-04,0.19, 1.66, 17.20, 2.27, 1.55, 7.08, repro,
2005-06-05,0.37, 2.40, 16.46, 2.33, 1.59, 7.23, repro,
2005-06-06,-0.76, 1.58, 12.89, 2.30, 1.60, 7.29, repro,
2005-06-07,-0.93, 2.03, 18.30, 2.25, 1.54, 6.98, repro,
2005-06-08,-1.25, 2.57, 11.13, 2.25, 1.55, 7.01, repro,
2005-06-09,0.18, 2.04, 15.73, 2.27, 1.58, 7.18, repro,
2005-06-10,-1.92, 2.55, 12.61, 2.31, 1.60, 7.26, repro,
2005-06-11,-0.91, 2.50, 13.36, 2.31, 1.61, 7.27, repro,
2005-06-12,-0.16, 2.31, 12.32, 2.32, 1.62, 7.26, repro,
2005-06-13,0.64, 2.12, 12.80, 2.32, 1.59, 7.21, repro,
2005-06-14,-1.27, 1.27, 14.78, 2.29, 1.59, 7.16, repro,
2005-06-15,-0.17, 2.15, 15.94, 2.25, 1.56, 7.09, repro,
2005-06-16,-1.87, 2.19, 14.48, 2.36, 1.59, 7.21, repro,
2005-06-17,-1.21, 2.28, 17.31, 2.35, 1.59, 7.15, repro,
2005-06-18,-2.59, 2.47, 14.08, 2.25, 1.55, 7.02, repro,
2005-06-19,-1.54, 1.98, 10.54, 2.27, 1.55, 7.04, repro,
2005-06-20,-0.15, 1.84, 11.17, 2.26, 1.56, 7.06, repro,
2005-06-21,-0.41, 1.91, 14.94, 2.24, 1.56, 7.05, repro,
2005-06-22,-2.00, 3.20, 13.25, 2.28, 1.57, 7.10, repro,
2005-06-23,-1.34, 2.11, 8.88, 2.27, 1.55, 7.05, repro,
2005-06-24,-0.35, 2.20, 9.15, 2.26, 1.55, 7.03, repro,
2005-06-25,-1.09, 1.70, 17.08, 2.27, 1.55, 6.98, repro,
2005-06-26,0.80, 2.03, 17.13, 2.30, 1.58, 7.19, repro,
2005-06-27,0.02, 0.55, 16.39, 2.26, 1.56, 7.08, repro,
2005-06-28,-0.11, 1.39, 14.72, 2.26, 1.55, 7.05, repro,
2005-06-29,-2.02, 2.32, 12.75, 2.24, 1.54, 6.99, repro,
2005-06-30,-0.91, 1.33, 19.44, 2.24, 1.54, 6.95, repro,
2005-07-01,-2.13, 2.21, 21.43, 2.24, 1.55, 7.02, repro,
2005-07-02,-1.16, 2.56, 21.46, 2.24, 1.54, 7.00, repro,
2005-07-03,-2.01, 2.16, 17.62, 2.25, 1.54, 7.00, repro,
2005-07-04,-1.81, 2.95, 10.68, 2.26, 1.55, 7.03, repro,
2005-07-05,-0.81, 2.28, 12.06, 2.24, 1.54, 7.01, repro,
2005-07-06,1.78, -0.57, 15.01, 2.30, 1.61, 7.17, repro,
2005-07-07,-2.63, 1.97, 17.33, 2.32, 1.58, 7.15, repro,
2005-07-08,-1.10, 0.02, 19.83, 2.26, 1.55, 7.01, repro,
2005-07-09,-1.42, 1.16, 18.63, 2.26, 1.57, 7.08, repro,
2005-07-10,-1.04, 2.50, 18.14, 2.31, 1.62, 7.21, repro,
2005-07-11,-0.18, 2.45, 16.37, 2.22, 1.54, 6.94, repro,
2005-07-12,-0.97, 0.96, 16.37, 2.25, 1.55, 6.99, repro,
2005-07-13,0.53, 1.49, 8.52, 2.25, 1.54, 6.99, repro,
2005-07-14,-0.11, 1.67, 13.42, 2.27, 1.59, 7.15, repro,
2005-07-15,-0.06, 2.43, 9.34, 2.26, 1.56, 7.06, repro,
2005-07-16,0.64, 3.03, 17.16, 2.25, 1.56, 7.00, repro,
2005-07-17,1.26, 1.67, 13.25, 2.24, 1.55, 7.01, repro,
2005-07-18,-0.46, 1.68, 19.14, 2.25, 1.56, 7.08, repro,
2005-07-19,0.15, 1.79, 17.14, 2.27, 1.56, 7.09, repro,
2005-07-20,0.89, 2.54, 16.98, 2.27, 1.57, 7.06, repro,
2005-07-21,-0.78, 2.90, 10.60, 2.26, 1.56, 7.05, repro,
2005-07-22,0.79, 0.48, 19.02, 2.25, 1.57, 7.07, repro,
2005-07-23,0.33, 1.02, 14.73, 2.24, 1.55, 6.95, repro,
2005-07-24,-0.38, 2.08, 11.55, 2.27, 1.60, 7.18, repro,
2005-07-25,1.46, 2.21, 13.01, 2.28, 1.60, 7.27, repro,
2005-07-26,0.04, 2.80, 10.25, 2.31, 1.64, 7.44, repro,
2005-07-27,1.10, 1.63, 14.14, 2.49, 1.77, 8.15, repro,
2005-07-28,0.46, 1.65, 13.19, 2.32, 1.64, 7.29, repro,
2005-07-29,1.16, 1.23, 13.61, 2.27, 1.59, 7.20, repro,
2005-07-30,-0.08, 3.34, 13.59, 2.27, 1.59, 7.23, repro,
2005-07-31,-0.03, 2.77, 13.46, 2.35, 1.63, 7.55, repro,
2005-08-01,1.06, 2.23, 11.53, 2.30, 1.61, 7.30, repro,
2005-08-02,0.03, 2.78, 12.73, 2.28, 1.58, 7.15, repro,
2005-08-03,-1.05, 2.80, 14.19, 2.24, 1.55, 6.95, repro,
2005-08-04,-0.24, 2.31, 11.03, 2.25, 1.55, 7.03, repro,
2005-08-05,-0.29, 1.70, 14.33, 2.27, 1.57, 7.08, repro,
2005-08-06,0.81, 2.86, 17.55, 2.28, 1.56, 7.09, repro,
2005-08-07,0.50, 2.70, 15.46, 2.27, 1.56, 7.06, repro,
2005-08-08,0.08, 1.35, 13.28, 2.25, 1.54, 6.96, repro,
2005-08-09,0.17, 1.99, 15.61, 2.24, 1.56, 6.99, repro,
2005-08-10,-1.82, 3.20, 13.13, 2.24, 1.56, 7.02, repro,
2005-08-11,-0.04, 3.44, 14.15, 2.31, 1.63, 7.25, repro,
2005-08-12,0.53, 4.07, 10.29, 2.35, 1.64, 7.33, repro,
2005-08-13,0.91, 2.33, 9.70, 2.26, 1.56, 7.06, repro,
2005-08-14,-0.43, 2.10, 15.02, 2.27, 1.59, 7.09, repro,
2005-08-15,0.90, 3.00, 17.16, 2.34, 1.67, 7.30, repro,
2005-08-16,-0.47, 3.00, 9.77, 2.37, 1.67, 7.37, repro,
2005-08-17,0.61, 3.57, 18.46, 2.29, 1.58, 7.20, repro,
2005-08-18,0.01, 1.50, 16.18, 2.29, 1.56, 7.13, repro,
2005-08-19,0.57, 2.74, 16.53, 2.24, 1.54, 7.00, repro,
2005-08-20,0.17, 1.99, 19.43, 2.28, 1.60, 7.14, repro,
2005-08-21,0.42, 2.16, 18.77, 2.27, 1.57, 7.10, repro,
2005-08-22,-0.73, 2.61, 16.24, 2.26, 1.56, 7.10, repro,
2005-08-23,-0.34, 1.91, 17.85, 2.29, 1.57, 7.19, repro,
2005-08-24,1.37, 1.38, 14.27, 2.27, 1.56, 7.14, repro,
2005-08-25,0.03, 1.73, 15.14, 2.23, 1.54, 6.95, repro,
2005-08-26,0.98, 1.89, 17.75, 2.23, 1.55, 7.00, repro,
2005-08-27,0.78, 2.54, 15.71, 2.30, 1.61, 7.19, repro,
2005-08-28,0.59, 1.99, 14.78, 2.27, 1.56, 7.12, repro,
2005-08-29,-0.14, 2.48, 18.16, 2.34, 1.62, 7.32, repro,
2005-08-30,0.97, 1.81, 14.16, 2.29, 1.61, 7.19, repro,
2005-08-31,-0.31, 1.71, 16.97, 2.27, 1.59, 7.10, repro,
2005-09-01,0.50, 1.58, 17.95, 2.24, 1.55, 7.03, repro,
2005-09-02,0.86, 2.94, 17.55, 2.27, 1.57, 7.11, repro,
2005-09-03,-0.44, 1.33, 16.21, 2.27, 1.56, 7.10, repro,
2005-09-04,-0.79, 2.05, 16.97, 2.32, 1.60, 7.20, repro,
2005-09-05,0.46, 1.86, 16.34, 2.24, 1.55, 7.01, repro,
2005-09-06,1.02, 1.42, 13.68, 2.24, 1.55, 7.01, repro,
2005-09-07,0.29, 1.74, 10.15, 2.33, 1.57, 7.09, repro,
2005-09-08,0.57, 2.04, 13.91, 2.34, 1.58, 7.16, repro,
2005-09-09,-0.15, 0.42, 22.21, 2.35, 1.58, 7.19, repro,
2005-09-10,1.58, 1.74, 18.18, 2.31, 1.56, 7.11, repro,
2005-09-11,1.54, 0.75, 11.98, 2.32, 1.57, 7.15, repro,
2005-09-12,0.56, 1.75, 15.43, 2.31, 1.56, 7.09, repro,
2005-09-13,1.60, 1.92, 15.74, 2.43, 1.66, 7.45, repro,
2005-09-14,1.24, 1.94, 12.39, 2.36, 1.61, 7.28, repro,
2005-09-15,1.25, 1.45, 14.99, 2.38, 1.61, 7.31, repro,
2005-09-16,-0.02, 1.34, 19.07, 2.35, 1.61, 7.29, repro,
2005-09-17,1.25, 1.11, 14.66, 2.25, 1.55, 7.08, repro,
2005-09-18,0.15, 1.15, 13.07, 2.25, 1.56, 7.10, repro,
2005-09-19,1.96, -0.22, 10.04, 2.30, 1.57, 7.22, repro,
2005-09-20,0.51, 0.94, 8.38, 2.24, 1.54, 7.00, repro,
2005-09-21,0.48, 1.11, 13.38, 2.27, 1.58, 7.21, repro,
2005-09-22,0.46, 1.01, 13.07, 2.25, 1.55, 7.10, repro,
2005-09-23,0.88, 1.42, 8.33, 2.25, 1.56, 7.14, repro,
2005-09-24,0.09, 1.19, 11.45, 2.30, 1.60, 7.27, repro,
2005-09-25,0.64, 2.07, 17.25, 2.28, 1.59, 7.19, repro,
2005-09-26,0.14, 1.76, 15.72, 2.28, 1.58, 7.16, repro,
2005-09-27,0.86, 1.99, 17.09, 2.28, 1.60, 7.24, repro,
2005-09-28,0.70, 1.94, 13.61, 2.35, 1.59, 7.28, repro,
2005-09-29,-0.01, -0.26, 17.99, 2.33, 1.58, 7.17, repro,
2005-09-30,0.82, -0.04, 23.54, 2.26, 1.56, 7.10, repro,
2005-10-01,0.76, 0.44, 19.64, 2.26, 1.55, 7.05, repro,
2005-10-02,-0.36, 1.62, 17.23, 2.30, 1.59, 7.18, repro,
2005-10-03,2.03, 1.55, 15.12, 2.31, 1.60, 7.29, repro,
2005-10-04,0.73, 1.54, 8.86, 2.30, 1.58, 7.16, repro,
2005-10-05,0.82, 1.53, 5.98, 2.34, 1.59, 7.26, repro,
2005-10-06,0.59, 1.27, 14.77, 2.26, 1.55, 7.01, repro,
2005-10-07,-0.08, 2.07, 20.01, 2.26, 1.55, 7.04, repro,
2005-10-08,0.67, 1.47, 16.38, 2.26, 1.55, 7.04, repro,
2005-10-09,-0.05, 1.71, 13.43, 2.25, 1.54, 7.02, repro,
2005-10-10,0.37, 1.12, 11.16, 2.25, 1.55, 7.04, repro,
2005-10-11,0.89, 1.42, 14.96, 2.31, 1.61, 7.20, repro,
2005-10-12,0.60, 1.10, 8.55, 2.29, 1.60, 7.19, repro,
2005-10-13,1.61, 2.72, 12.25, 2.32, 1.60, 7.31, repro,
2005-10-14,-0.48, 1.52, 19.61, 2.25, 1.56, 7.04, repro,
2005-10-15,-0.07, 1.06, 19.99, 2.29, 1.60, 7.22, repro,
2005-10-16,1.63, 0.42, 11.96, 2.31, 1.58, 7.36, repro,
2005-10-17,-0.12, 1.37, 13.18, 2.26, 1.57, 7.07, repro,
2005-10-18,-0.79, 1.00, 16.42, 2.44, 1.71, 7.72, repro,
2005-10-19,0.27, 0.88, 13.60, 2.31, 1.60, 7.23, repro,
2005-10-20,0.06, 0.67, 15.30, 2.34, 1.58, 7.17, repro,
2005-10-21,1.03, 2.12, 12.72, 2.27, 1.59, 7.24, repro,
2005-10-22,0.82, 1.51, 12.53, 2.25, 1.56, 7.06, repro,
2005-10-23,0.81, 1.57, 14.22, 2.30, 1.61, 7.23, repro,
2005-10-24,0.90, 1.51, 8.95, 2.31, 1.59, 7.19, repro,
2005-10-25,1.02, 1.71, 15.25, 2.30, 1.61, 7.24, repro,
2005-10-26,0.30, 1.23, 18.26, 2.34, 1.67, 7.45, repro,
2005-10-27,1.74, 1.00, 12.75, 2.30, 1.64, 7.35, repro,
2005-10-28,0.78, 0.76, 17.39, 2.25, 1.56, 7.05, repro,
2005-10-29,0.81, 1.20, 12.20, 2.29, 1.60, 7.26, repro,
2005-10-30,1.05, 1.38, 9.25, 2.25, 1.55, 7.03, repro,
2005-10-31,1.78, 1.72, 12.43, 2.42, 1.69, 7.61, repro,
2005-11-01,2.40, 0.81, 9.84, 2.42, 1.70, 7.59, repro,
2005-11-02,0.54, 0.18, 10.81, 2.42, 1.78, 7.78, repro,
2005-11-03,0.71, 1.18, 12.28, 2.30, 1.62, 7.18, repro,
2005-11-04,-0.55, 0.20, 16.21, 2.39, 1.71, 7.56, repro,
2005-11-05,0.33, 1.71, 12.03, 2.42, 1.74, 7.66, repro,
2005-11-06,3.20, 1.73, 16.73, 2.37, 1.68, 7.41, repro,
2005-11-07,1.27, 1.31, 9.35, 2.42, 1.74, 7.70, repro,
2005-11-08,0.81, 1.35, 8.87, 2.36, 1.70, 7.51, repro,
2005-11-09,1.40, 1.61, 5.47, 2.43, 1.78, 7.77, repro,
2005-11-10,1.84, 1.74, 10.58, 2.56, 1.83, 8.04, repro,
2005-11-11,0.34, -1.35, 17.82, 2.43, 1.70, 7.66, repro,
2005-11-12,-0.28, 1.76, 14.64, 2.26, 1.61, 7.13, repro,
2005-11-13,-0.46, 0.63, 9.80, 2.41, 1.75, 7.58, repro,
2005-11-14,1.06, 1.53, 1.49, 2.35, 1.67, 7.39, repro,
2005-11-15,0.79, 1.70, 0.92, 2.25, 1.56, 7.06, repro,
2005-11-16,1.43, 1.38, -0.67, 2.29, 1.59, 7.22, repro,
2005-11-17,0.66, 0.75, -0.89, 2.25, 1.56, 7.09, repro,
2005-11-18,-0.19, 1.00, 1.94, 2.24, 1.56, 7.09, repro,
2005-11-19,0.92, 1.04, 3.90, 2.25, 1.56, 7.08, repro,
2005-11-20,0.79, 1.29, 4.10, 2.27, 1.59, 7.22, repro,
2005-11-21,0.34, 1.71, 5.56, 2.45, 1.65, 7.57, repro,
2005-11-22,0.53, 1.17, 5.18, 2.34, 1.66, 7.47, repro,
2005-11-23,0.03, 1.06, 7.01, 2.32, 1.64, 7.43, repro,
2005-11-24,0.28, 0.30, 5.32, 2.32, 1.63, 7.39, repro,
2005-11-25,0.10, 0.94, 14.20, 2.30, 1.60, 7.25, repro,
2005-11-26,1.18, 1.04, 13.26, 2.52, 1.73, 7.96, repro,
2005-11-27,0.75, 0.58, 9.31, 2.28, 1.59, 7.19, repro,
2005-11-28,0.68, 0.99, 5.23, 2.30, 1.61, 7.30, repro,
2005-11-29,0.55, 0.88, 11.26, 2.31, 1.61, 7.31, repro,
2005-11-30,0.05, 0.62, 7.33, 2.31, 1.61, 7.31, repro,
2005-12-01,1.55, 0.52, 10.88, 2.27, 1.57, 7.13, repro,
2005-12-02,0.14, 1.14, 9.63, 2.28, 1.58, 7.17, repro,
2005-12-03,0.33, 0.89, 8.88, 2.26, 1.57, 7.13, repro,
2005-12-04,0.94, 0.75, -1.37, 2.26, 1.56, 7.12, repro,
2005-12-05,0.18, 0.90, 2.76, 2.25, 1.57, 7.14, repro,
2005-12-06,0.08, 0.97, -0.06, 2.25, 1.54, 7.06, repro,
2005-12-07,0.12, 1.21, 5.45, 2.32, 1.61, 7.30, repro,
2005-12-08,0.09, 0.98, 5.39, 2.31, 1.62, 7.32, repro,
2005-12-09,-1.45, 1.35, 2.69, 2.25, 1.57, 7.12, repro,
2005-12-10,-1.21, 0.48, 7.22, 2.26, 1.57, 7.15, repro,
2005-12-11,-0.50, 0.73, 5.64, 2.26, 1.57, 7.12, repro,
2005-12-12,-0.08, 0.80, 7.00, 2.29, 1.58, 7.18, repro,
2005-12-13,0.56, 1.09, 8.94, 2.24, 1.54, 7.02, repro,
2005-12-14,0.47, 0.66, 1.72, 2.27, 1.57, 7.14, repro,
2005-12-15,0.10, 0.82, -0.37, 2.32, 1.59, 7.30, repro,
2005-12-16,-0.26, 1.05, 5.76, 2.25, 1.54, 7.05, repro,
2005-12-17,-0.39, 0.84, 6.60, 2.31, 1.61, 7.24, repro,
2005-12-18,0.48, 0.50, 2.59, 2.31, 1.65, 7.27, repro,
2005-12-19,0.16, 0.88, 4.45, 2.37, 1.68, 7.36, repro,
2005-12-20,-2.10, 1.29, 6.58, 2.32, 1.65, 7.29, repro,
2005-12-21,-0.96, 0.57, 7.36, 2.31, 1.65, 7.32, repro,
2005-12-22,-0.95, 0.91, 13.52, 2.32, 1.65, 7.33, repro,
2005-12-23,-1.12, 0.20, 8.95, 2.33, 1.64, 7.18, repro,
2005-12-24,-1.19, 0.57, 2.40, 2.65, 1.87, 8.63, repro,
2005-12-25,-1.23, 0.45, 9.01, 2.33, 1.63, 7.29, repro,
2005-12-26,-0.82, 0.16, 13.64, 2.30, 1.61, 7.20, repro,
2005-12-27,-1.30, 0.27, 6.41, 2.39, 1.67, 7.50, repro,
2005-12-28,-0.09, 0.86, 4.13, 2.30, 1.62, 7.22, repro,
2005-12-29,-0.79, 1.46, 2.40, 2.49, 1.72, 8.01, repro,
2005-12-30,-0.04, 1.39, 9.93, 2.48, 1.74, 7.97, repro,
2005-12-31,-1.95, 1.18, 20.94, 2.74, 1.98, 9.44, repro,
2006-01-01,-1.01, 0.31, 15.48, 2.48, 1.72, 7.98, repro,
2006-01-02,-0.15, 0.22, 11.34, 2.35, 1.66, 7.25, repro,
2006-01-03,-0.76, 0.58, 9.81, 2.59, 1.90, 8.36, repro,
2006-01-04,-0.62, 0.64, 0.60, 2.48, 1.78, 7.84, repro,
2006-01-05,-0.27, 0.87, -3.92, 2.35, 1.69, 7.56, repro,
2006-01-06,-1.53, 0.35, 5.46, 2.46, 1.76, 8.00, repro,
2006-01-07,-0.04, 0.59, 7.08, 2.32, 1.63, 7.27, repro,
2006-01-08,-0.61, 1.38, 6.43, 2.34, 1.69, 7.48, repro,
2006-01-09,0.22, -0.17, 4.18, 2.46, 1.80, 7.88, repro,
2006-01-10,-1.88, 1.85, 17.81, 2.48, 1.76, 8.00, repro,
2006-01-11,-1.51, 1.33, 20.34, 2.38, 1.69, 7.56, repro,
2006-01-12,-0.65, -0.24, 2.69, 2.36, 1.69, 7.34, repro,
2006-01-13,-1.18, 1.67, 7.35, 2.51, 1.77, 8.32, repro,
2006-01-14,-0.12, 1.37, 9.44, 2.32, 1.64, 7.33, repro,
2006-01-15,-0.07, -0.52, 9.10, 2.28, 1.58, 7.05, repro,
2006-01-16,0.16, 0.81, 0.42, 2.41, 1.75, 7.61, repro,
2006-01-17,0.26, 1.32, 5.39, 2.31, 1.62, 7.15, repro,
2006-01-18,-0.19, 0.07, 12.22, 2.26, 1.57, 7.05, repro,
2006-01-19,-0.88, 0.75, 6.61, 2.29, 1.60, 7.22, repro,
2006-01-20,-0.58, 0.80, -0.46, 2.30, 1.60, 7.23, repro,
2006-01-21,-0.27, 0.54, 4.59, 2.29, 1.56, 7.06, repro,
2006-01-22,0.22, 0.78, -0.55, 2.28, 1.55, 7.01, repro,
2006-01-23,-1.39, 0.27, -1.00, 2.26, 1.56, 6.98, repro,
2006-01-24,-0.96, 0.80, -0.64, 2.29, 1.60, 7.15, repro,
2006-01-25,-0.44, 0.46, 2.45, 2.20, 1.53, 6.90, repro,
2006-01-26,-1.02, 0.90, -0.64, 2.20, 1.52, 6.85, repro,
2006-01-27,-0.12, 0.12, 3.41, 2.22, 1.53, 6.91, repro,
2006-01-28,-0.31, 0.97, 7.89, 2.20, 1.52, 6.91, repro,
2006-01-29,-1.35, 0.37, -0.42, 2.18, 1.52, 6.87, repro,
2006-01-30,-1.06, 0.70, 8.34, 2.20, 1.52, 6.91, repro,
2006-01-31,-1.77, 0.12, 4.39, 2.20, 1.52, 6.93, repro,
2006-02-01,1.47, 0.76, 17.60, 2.23, 1.54, 7.04, repro,
2006-02-02,-1.82, -0.34, 7.83, 2.25, 1.54, 7.01, repro,
2006-02-03,-0.97, 0.28, 4.63, 2.20, 1.51, 6.90, repro,
2006-02-04,-0.43, 0.02, 4.73, 2.22, 1.52, 6.95, repro,
2006-02-05,-0.42, -0.07, -1.23, 2.20, 1.51, 6.93, repro,
2006-02-06,-0.76, 0.39, -2.29, 2.21, 1.51, 6.95, repro,
2006-02-07,-0.97, 0.35, -6.04, 2.22, 1.53, 7.01, repro,
2006-02-08,-2.06, 0.44, -3.22, 2.22, 1.51, 6.97, repro,
2006-02-09,-0.56, -0.52, -8.55, 2.28, 1.53, 7.00, repro,
2006-02-10,-0.65, 0.26, -10.04, 2.35, 1.55, 7.09, repro,
2006-02-11,-0.50, 1.01, -8.83, 2.21, 1.52, 6.98, repro,
2006-02-12,-0.69, 0.04, -9.59, 2.22, 1.52, 7.00, repro,
2006-02-13,-0.80, -0.04, -1.64, 2.23, 1.52, 7.02, repro,
2006-02-14,-1.73, -0.41, 1.85, 2.21, 1.51, 6.97, repro,
2006-02-15,-0.87, -0.26, -0.63, 2.23, 1.51, 6.97, repro,
2006-02-16,0.18, 0.08, -3.30, 2.22, 1.51, 6.95, repro,
2006-02-17,0.39, 1.02, -3.30, 2.23, 1.52, 7.02, repro,
2006-02-18,-0.58, 0.14, -5.70, 2.23, 1.52, 7.01, repro,
2006-02-19,-0.12, 0.06, 1.03, 2.23, 1.52, 6.99, repro,
2006-02-20,-0.85, -0.16, 3.58, 2.24, 1.53, 7.00, repro,